DMSP 5D-2 F13 DEB, 42286

Orbit data source: Space-Track

DMSP 5D-2 F13 DEB, 42286 is space debris in SSO originally from a launch on Fri, 24 Mar 1995 UTC launched from the Air Force Western Test Range (AFWTR). Debris objects in space refer to the collection of defunct objects orbiting the Earth. Examples of debris include non-operational satellites, rocket bodies, and fragments generated from explosions, collisions, or faulty payload assembly.

Loading next visibility...
Identifier
42286, 1995-015HC
Orbit
SSO
Country
Flag of USUS
Related business
Manufacturer
Unknown
Mission
Spacecraft
Bus & Motor
Unknown
Mass
Unknown
Launch date (UTC)
1995-03-24 (31 years ago)
Launch vehicle
Unknown
Launch site
Air Force Western Test Range (AFWTR)
Object type
Payload
Rocket body
Debris
Shape & HBR
Unknown shape, 0.1 m
Radar Cross Section
Small (<0.1 m²)

Expand to show TLE details & history
Last TLE update: 5 days ago

TLE from 5 days ago
0 DMSP 5D-2 F13 DEB
1 42286U 95015HC  26114.19441169  .00002817  00000-0  12108-2 0  9993
2 42286  98.9250  91.5127 0049401 229.3033 130.3849 14.24855320563097
Epoch: 2026-04-24T04:39Z
TLE epoch observation values (Epoch: 2026-04-24T04:39:57.170Z)
Latitude
0.00005°
Longitude
169.29385°
Altitude
835.003 km
Speed
7.423 km/s
True Right ascension
06h 06m 03s
True Declination
0° 00' 00"
Sunlit
Object was in daylight at epoch
Visualization orbit readout
Latitude
Unknown
Longitude
Unknown
Altitude
Unknown
Speed
Unknown
Apparent Right ascension
Unknown
Apparent Declination
Unknown
Sunlit
N/A
Visualization observer readout
Local Sidereal Time
14:42:48
Azimuth
Unknown
Elevation
Unknown
Doppler factor
Unknown
Orbital elements
Apogee altitude
841.633 km
Perigee altitude
770.651 km
Semi-major axis
7,184.279 km
Eccentricity
0.00494
Inclination
98.925°
RAAN
91.5127°
Arg. of periapsis
229.3033°
True anomaly
130.81438°
Mean anomaly
130.3849°
Eccentric anomaly
130.59981°
Mean motion
3.56425 °/min
Orbital period
101 mins
BSTAR
0.0012108
Loading maneuver chart data...
Computing Atmospheric mass density...

Documentation

Showing up to 5 results
|